Date,TemperatureHighF,TemperatureAvgF,TemperatureLowF,DewpointHighF,DewpointAvgF,DewpointLowF,HumidityHigh,HumidityAvg,HumidityLow,PressureMaxIn,PressureMinIn,WindSpeedMaxMPH,WindSpeedAvgMPH,GustSpeedMaxMPH,PrecipitationSumIn
2013-8-1,88.0,79.9,75.0,77.0,73.7,69.8,98,82,59,30.09,29.96,15,5,0,0.00
2013-8-2,88.0,80.8,75.0,77.2,74.1,68.5,100,81,58,30.09,29.96,12,4,0,0.00
2013-8-3,86.0,81.8,75.0,78.6,74.5,68.7,99,79,67,30.16,30.06,18,5,0,0.00
2013-8-4,84.9,82.7,79.0,80.8,75.8,71.1,100,80,68,30.14,30.06,15,6,0,0.00
2013-8-5,84.9,83.7,82.0,78.6,75.3,72.3,84,76,68,30.09,29.99,18,8,0,0.00
2013-8-6,89.1,82.3,79.0,80.1,75.5,72.3,97,80,66,30.03,29.95,14,4,0,0.00
2013-8-7,87.1,80.5,75.9,77.5,74.3,67.5,95,82,55,30.01,29.93,25,5,0,0.00
2013-8-8,87.1,81.2,77.0,77.7,75.2,71.1,99,83,61,30.04,29.95,20,7,0,0.00
2013-8-9,84.9,79.3,75.9,76.5,73.7,66.6,99,83,60,30.09,29.98,19,6,0,0.00
2013-8-10,90.0,81.8,75.0,76.6,73.5,68.0,99,77,51,30.14,30.04,19,8,0,0.00
2013-8-11,90.0,83.2,77.0,77.5,74.6,70.2,99,76,54,30.17,30.08,17,8,0,0.00
2013-8-12,91.0,83.0,75.9,76.6,73.1,67.1,100,74,47,30.16,30.04,15,6,0,0.00
2013-8-13,87.1,80.8,75.0,78.1,74.6,69.6,98,82,61,30.09,29.99,22,6,0,0.00
2013-8-14,86.0,80.7,73.9,77.5,74.1,68.9,100,81,64,30.06,29.96,20,5,0,0.00
2013-8-15,84.9,79.8,73.9,77.5,74.2,71.1,100,84,65,30.09,29.98,25,5,0,0.00
2013-8-16,88.0,82.4,77.0,78.3,75.1,69.1,96,79,61,30.09,30.01,16,6,0,0.00
2013-8-17,88.0,82.4,79.0,79.2,76.0,71.1,100,82,61,30.11,30.01,17,6,0,0.00
2013-8-18,88.0,80.7,75.9,78.6,75.9,70.0,100,86,59,30.12,30.01,27,6,0,0.00
2013-8-19,88.0,79.0,73.0,78.1,75.0,71.2,100,88,60,30.09,30.00,20,6,0,0.00
2013-8-20,84.9,79.2,73.9,77.2,74.4,70.0,100,86,68,30.09,30.01,28,4,0,0.00
2013-8-21,88.0,80.5,75.9,78.4,75.4,71.8,100,85,63,30.09,30.01,22,6,0,0.00
2013-8-22,87.1,80.8,75.9,78.1,75.2,71.4,100,84,66,30.09,29.98,18,6,0,0.00
2013-8-23,86.0,79.5,75.9,79.0,74.7,69.4,100,86,62,30.04,29.96,13,4,0,0.00
2013-8-24,89.1,80.7,73.9,78.4,75.3,71.1,100,85,61,30.14,30.01,20,5,0,0.00
2013-8-25,87.1,80.6,75.0,78.1,74.3,70.5,100,82,59,30.18,30.06,15,4,0,0.00
2013-8-26,84.9,78.7,75.0,76.6,74.2,68.4,99,87,66,30.14,30.03,17,4,0,0.00
2013-8-27,84.0,77.1,73.0,76.6,73.1,69.4,100,88,63,30.09,30.01,20,4,0,0.00
2013-8-28,84.9,77.3,73.9,75.9,71.9,67.6,100,84,59,30.08,29.99,15,4,0,0.00
2013-8-29,87.1,79.7,73.9,76.6,73.0,70.2,100,81,65,30.06,29.98,13,5,0,0.00
2013-8-30,86.0,81.6,77.0,79.0,73.9,70.3,100,78,66,30.06,29.96,15,4,0,0.00
2013-8-31,84.9,81.4,78.1,78.3,73.8,70.2,97,78,65,30.04,29.95,15,6,0,0.00